カタログに戻る

STARLINK-2492

運用中通信VLEO
NORAD 48149·PAYLOAD·🇺🇸 United States

打ち上げ Apr 7, 2021 から Cape Canaveral Space Force Station

Loading…

次のパス (今後24時間)

TLE

最新Source: CelesTrak SupGP

元期: Sep 15, 2026, 02:00 UTC

1 48149C 21027BK  26258.08381944  .00043154  00000+0  13873-2 0  2586
2 48149  53.1589 351.5504 0000904  94.3045 296.1833 15.31689452    17

AllMySatでSTARLINK-2492をリアルタイム追跡

Download on the App Store